User: anonymous   Login
Location: Unspecified
(0.0000°N, 0.0000°E)
Time: 15:46:12
(UTC+02:00)
Language:

Iridium 75 - Orbit

View from above orbital plane
View from above orbital plane
View from above satellite
View from above satellite

Ground track
Ground track

The orbit data is extracted from the following two-line orbital elements,

1 25346U 98032E   16274.54655282  .00000034  00000-0  49810-5 0  9993
2 25346  86.3983 332.6677 0002274  95.2991  28.5855 14.34225433962453
Epoch (UTC): 30 September 2016 13:07:02
Eccentricity: 0.0002274
inclination: 86.3983°
perigee height: 776 km
apogee height: 779 km
right ascension of ascending node: 332.6677°
argument of perigee: 95.2991°
revolutions per day: 14.34225433
mean anomaly at epoch: 28.5855°
orbit number at epoch: 96245

The dashed part of the orbit path shows where the satellite is in the earth's shadow,  

DLR